Hinterstoisser Air Base LOXZ

Flugplatz Daten

Name: Hinterstoisser Air Base

Ident: LOXZ

Lat: 47,20280075

Long: 14,74419975

Platzhöhe: 2220 ft

IataCode:

City: Zeltweg

Metar

2021/10/25 18:50
LOXZ 251850Z VRB01KT 15KM FEW240CI BKN270CI 02/01 Q1024

Taf

2017/04/18 12:33
TAF LOXZ 181415Z 1812/1824 CNL
Gewünschte Webcam nicht vorhanden? Dann fügen Sie eine hinzu. Sie wird dann so schnell wie möglich freigeschaltet
Url: Title: